Skip Page Navigation
NASA JPL Caltech
NASA Logo - Jet Propulsion Laboratory + View the NASA Portal
+ Near-Earth Object (NEO) Program
Search JPL
JPL Home Earth Solar System Stars & Galaxies Technology
JPL Solar System Dynamics
BODIES ORBITS EPHEMERIDES TOOLS PHYSICAL DATA DISCOVERY FAQ SITE MAP
JPL Small-Body Database Browser
Search: [ help ]  
9161 Beaufort (1987 BZ1)
Classification: Main-belt Asteroid          SPK-ID: 2009161
Ephemeris | Orbit Diagram | Orbital Elements | Physical Parameters | Discovery Circumstances ]

[ hide orbit diagram ]
Orbit Diagram
Note: Make sure you have Java enabled on your browser to see the applet. This applet is provided as a 3D orbit visualization tool. The applet was implemented using 2-body methods, and hence should not be used for determining accurate long-term trajectories (over several years or decades) or planetary encounter circumstances. For accurate long-term ephemerides, please instead use our Horizons system.
Orbit Viewer

Additional Notes: the orbits shown in the applet are color coded. The planets are white lines, and the asteroid/comet is a blue line. The bright white line indicates the portion of the orbit that is above the ecliptic plane, and the darker portion is below the ecliptic plane. Likewise for the asteroid/comet orbit, the light blue indicates the portion above the ecliptic plane, and the dark blue the portion below the ecliptic plane.

Orbit Viewer applet originally written and kindly provided by Osamu Ajiki (AstroArts), and further modified by Ron Baalke (JPL).


Orbital Elements at Epoch 2456400.5 (2013-Apr-18.0) TDB
Reference: JPL 1 (heliocentric ecliptic J2000)
 Element Value Uncertainty (1-sigma)   Units 
e .1337770221627189 5.7809e-08  
a 2.657291426677976 2.2234e-08 AU
q 2.301806892598473 1.5316e-07 AU
i 14.06565781268072 8.4911e-06 deg
node 140.0857768341519 2.5368e-05 deg
peri 279.9845880713031 4.1638e-05 deg
M 71.76853108423794 3.1858e-05 deg
tp 2456085.080337238963
(2012-Jun-06.58033724)
0.00013981 JED
period 1582.184794345218
4.33
1.9858e-05
5.437e-08
d
yr
n .2275334722509356 2.8557e-09 deg/d
Q 3.012775960757479 2.5208e-08 AU
  Orbit Determination Parameters
   # obs. used (total)      860  
   data-arc span      9583 days (26.24 yr)  
   first obs. used      1987-01-27  
   last obs. used      2013-04-23  
   planetary ephem.      DE405  
   SB-pert. ephem.      SB405-CPV-2  
   condition code      0  
   fit RMS      .55958  
   data source      ORB  
   producer      Otto Matic  
   solution date      2013-Apr-29 13:34:28  

Additional Information
 Earth MOID = 1.36312 AU 
 T_jup = 3.332 
[ show covariance matrix ]

Ephemeris | Orbit Diagram | Orbital Elements | Physical Parameters | Discovery Circumstances ]

Physical Parameter Table
Parameter Symbol Value Units Sigma Reference Notes
absolute magnitude H 13.4 mag n/a PDS3 (MPC 32415)  

9161 Beaufort           Discovered 1987 Jan. 26 by E. W. Elst at the European Southern Observatory.
Francis Beaufort (1774-1857) was an admiral of the British Navy who devised the scale for classifying wind force at sea. Since the (originally 13) force numbers of the Beaufort scale made no reference to the speed of the wind, many attempts have been made to relate the numbers with wind velocity.
NOTE: some special characters may not display properly (any characters within {} are an attempt to place the proper accent above a character)
Reference: 20030106/MPCPages.arcLast Updated: 2003-10-02

Alternate Designations
 1987 BZ1 = 1996 DM 
Ephemeris | Orbit Diagram | Orbital Elements | Physical Parameters | Discovery Circumstances ]
ABOUT SSD CREDITS/AWARDS PRIVACY/COPYRIGHT GLOSSARY LINKS
FirstGov 2013-Jun-20 08:51 UT
(server date/time)  
NASA Home Page
Site Manager:   Donald K. Yeomans
Webmaster  Alan B. Chamberlin